Вернуться в каталог

STARLINK-5477

АктивенСвязьVLEO
NORAD 55659·PAYLOAD·🇺🇸 United States

Запущен Feb 17, 2023 с Vandenberg Space Force Base

Loading…

Ближайшие Пролёты (ближайшие 24 часа)

TLE

СвежийSource: CelesTrak SupGP

Эпоха: Sep 14, 2026, 22:06 UTC

1 55659C 23021AH  26257.92131944  .00713160  00000+0  58346-1 0  2574
2 55659  70.0007  47.4695 0003079 273.4577 180.6258 14.98899221    19

Отслеживайте STARLINK-5477 в реальном времени с AllMySat

Download on the App Store